Карточка аэропорта ULMM

Внимание!
Информация на этой странице в стадии наполнения.
Если вы не увидели какой-то информации, или заметили неточность - пожалуйста сообщите нам!
Спасибо!
Команда RU-STAFF
Название аэропортаМурманск
Название аэропорта (англ.)Murmansk
Превышение267 ft. (81.4 m.)
Координаты68°46.902', 32°45.066'
Высота перехода4000 feet
Эшелон переходаQNH>=1013hPa:FL050; QNH<1013hPa:FL060; QNH<977hPa:FL070
Коды ответчика3101-3117
Зона ОрВДСанкт-Петербург РПИ (ULLL)
Данные METARULMM 091000Z 21004MPS 9999 BKN029 03/M02 Q0986 R13/690145 TEMPO 23009G17MPS RMK QFE733
Проноз погоды (TAF)ULMM 090759Z 0909/1009 22005G12MPS 6000 -SHSNRA BKN016CB TEMPO 0909/0918 24009G17MPS 2000 SHSNRA BECMG 0923/1001 19003G08MPS
NOTAMshow/hide NOTAM
AWOS   TABLE

Информация о ВПП

ВПП Длина ВПП (м.) Покрытие Курс ВПП Частота ILS
132500Асфальтобетон131110.3
312500Асфальтобетон311108.5

Диспетчерские позиции

Позывной Наименование органа УВД Частота
ULMM_TWRМурманск-Вышка120.7
ULMM_R_APPMurmansk Radar120.3



Спутниковое изображение